Regional Weather Roundup
Issued by NWS

Home | Current Version | Previous Version | Text Only | Print | Product List | Glossary On
Versions: 1 2 3 4 5 6 7 8 9 10 11 12 13 14 15 16 17 18 19 20 21 22 23 24 25 26 27 28 29 30 31 32 33 34 35 36 37 38 39 40 41 42 43 44 45 46 47 48 49 50
000
ASUS42 KKEY 181010
RWRKEY

FLORIDA REGIONAL WEATHER ROUNDUP FOR THE FLORIDA KEYS
NATIONAL WEATHER SERVICE KEY WEST FLORIDA
500 AM EST THU DEC 18 2014

...SOUTH FLORIDA AND THE KEYS...

CITY           SKY/WX    TMP DP  RH WIND       PRES   REMARKS
FORT MYERS     CLEAR     54  51  90 N5        30.13S
SW REGIONAL AP CLEAR     54  52  93 CALM      30.13S
NAPLES         CLEAR     59  59 100 CALM      30.13R
MIAMI          CLEAR     61  54  77 CALM      30.12F
WEST KENDALL   CLEAR     56  54  93 CALM      30.12F
HOMESTEAD      CLEAR     59  55  85 N1        30.12F
MARATHON       CLEAR     65  58  78 NE6       30.12F
BOCA CHICA NAS CLEAR     65  59  81 NE3       30.12F
KEY WEST INTL  CLEAR     65  60  84 NE5       30.12F

...INTERNATIONAL WEATHER...

CITY           SKY/WX    TMP DP  RH WIND       PRES   REMARKS
NASSAU BAHAMAS NOT AVBL
CANCUN MEXICO  PTCLDY    64  61  88 NW3       30.07S
COZUMEL MEXICO PTCLDY    59  59 100 CALM      30.06

ADJACENT COASTAL WATERS...

STATION/POSITION TIME  SKY/WX   TEMP    WIND        PRES    WAVE
                                AIR SEA DIR/SP/G            HT/PER
                 (UTC)          (F)     (DEG/KT/KT) (MB)    (FT/S)
PULASKI SHOAL LI 0900            70      50/  6/  6 1019.9F
SAND KEY         0936            70      40/ 13/ 15 1019.7F
SOMBRERO KEY     1000            69      30/ 11/ 12 1020.3F
LONG KEY         0900            67 68   10/ 11/ 11 1021.2F
MOLASSES REEF    1000            69 77  360/  9/ 10 1019.7F
FOWEY ROCKS      NOT AVBL
Buoy 42080       NOT AVBL

$$



USA.gov is the U.S. government's official web portal to all federal, state and local government web resources and services.